Anoka County, MN

6:51 PM CST on December 15, 2019 (GMT -0600)
Anoka County / Blaine Airport

Weather History for KANE - November, 2019

Change the Weather History Date:

Saturday, November 16, 2019

  Actual Average Record
Temperature  
Mean Temperature 40 °F -  
Max Temperature 48 °F 38 °F 66 °F (2001)
Min Temperature 33 °F 24 °F 10 °F (1997)
Degree Days  
Heating Degree Days 24    
Moisture  
Dew Point 31 °F    
Average Humidity 75    
Maximum Humidity 87    
Minimum Humidity 50    
Precipitation  
Precipitation 0.00 in - - ()
Sea Level Pressure  
Sea Level Pressure 30.11 in    
Wind  
Wind Speed 11 mph (SSE)    
Max Wind Speed 21 mph    
Max Gust Speed 31 mph    
Visibility 10 miles    
Events      
Averages and records for this station are not official NWS values.
T = Trace of Precipitation, MM = Missing Value Source: NWS Daily Summary

Daily Weather History Graph

Daily Weather History Graph

Search for Another Location

Airport or City:

Astronomy

Nov. 16, 2019 Rise Set
Actual Time 7:12 AM CST 4:42 PM CST
Civil Twilight 6:40 AM CST 5:14 PM CST
Nautical Twilight 6:04 AM CST 5:50 PM CST
Astronomical Twilight 5:29 AM CST 6:25 PM CST
Moon 8:11 PM CST 11:11 AM CST
Length of Visible Light 10h 34m
Length of Day
9h 30m
Waning Gibbous, 82% of the Moon is Illuminated
Nov 16
Waning Gibbous
Nov 19
Last Quarter
Nov 26
New
Dec 4
First Quarter
Dec 11
Full

Hourly Weather History & Observations

Time (CST) Temp. Windchill Dew Point Humidity Pressure Visibility Wind Dir Wind Speed Gust Speed Precip Events Conditions
12:15 AM 33.8 °F 27.0 °F 23.0 °F 65% 30.26 in 10.0 mi SE 8.1 mph - N/A   Clear
12:37 AM 35.6 °F 29.2 °F 26.6 °F 70% 30.25 in 10.0 mi SE 8.1 mph - N/A   Clear
12:56 AM 35.6 °F 28.6 °F 26.6 °F 70% 30.25 in 10.0 mi SE 9.2 mph - N/A   Clear
1:16 AM 35.6 °F 28.0 °F 26.6 °F 70% 30.24 in 10.0 mi SSE 10.4 mph - N/A   Clear
1:36 AM 35.6 °F 28.0 °F 28.4 °F 75% 30.24 in 10.0 mi SSE 10.4 mph - N/A   Clear
1:58 AM 35.6 °F 28.6 °F 28.4 °F 75% 30.23 in 10.0 mi SSE 9.2 mph 16.1 mph N/A   Clear
2:16 AM 35.6 °F 28.0 °F 28.4 °F 75% 30.23 in 10.0 mi SE 10.4 mph - N/A   Clear
2:36 AM 35.6 °F 27.5 °F 28.4 °F 75% 30.22 in 10.0 mi SSE 11.5 mph 19.6 mph N/A   Clear
2:56 AM 35.6 °F 28.0 °F 28.4 °F 75% 30.22 in 10.0 mi SSE 10.4 mph - N/A   Clear
3:15 AM 35.6 °F 27.5 °F 30.2 °F 81% 30.21 in 10.0 mi SE 11.5 mph - N/A   Scattered Clouds
3:19 AM 35.6 °F 26.6 °F 30.2 °F 81% 30.21 in 10.0 mi SE 13.8 mph - N/A   Scattered Clouds
3:37 AM 35.6 °F 27.1 °F 30.2 °F 81% 30.19 in 10.0 mi SSE 12.7 mph 16.1 mph N/A   Clear
3:56 AM 35.6 °F 27.5 °F 30.2 °F 81% 30.19 in 10.0 mi SSE 11.5 mph 18.4 mph N/A   Clear
4:16 AM 35.6 °F 27.5 °F 30.2 °F 81% 30.19 in 10.0 mi SSE 11.5 mph - N/A   Clear
4:36 AM 35.6 °F 28.0 °F 30.2 °F 81% 30.19 in 10.0 mi SSE 10.4 mph - N/A   Clear
4:59 AM 35.6 °F 27.5 °F 30.2 °F 81% 30.19 in 10.0 mi SSE 11.5 mph 16.1 mph N/A   Clear
5:16 AM 35.6 °F 27.5 °F 30.2 °F 81% 30.18 in 10.0 mi SSE 11.5 mph - N/A   Clear
5:36 AM 35.6 °F 27.1 °F 30.2 °F 81% 30.18 in 10.0 mi SSE 12.7 mph - N/A   Clear
5:56 AM 35.6 °F 26.2 °F 30.2 °F 81% 30.18 in 10.0 mi SSE 15.0 mph 18.4 mph N/A   Clear
6:15 AM 35.6 °F 26.6 °F 30.2 °F 81% 30.18 in 10.0 mi SSE 13.8 mph 19.6 mph N/A   Clear
6:20 AM 35.6 °F 27.5 °F 30.2 °F 81% 30.18 in 10.0 mi SSE 11.5 mph - N/A   Clear
6:37 AM 35.6 °F 26.6 °F 30.2 °F 81% 30.17 in 10.0 mi SSE 13.8 mph - N/A   Clear
6:50 AM 35.6 °F 27.5 °F 30.2 °F 81% 30.18 in 10.0 mi SSE 11.5 mph 20.7 mph N/A   Scattered Clouds
7:45 AM 35.6 °F 26.6 °F 30.2 °F 81% 30.17 in 7.0 mi SSE 13.8 mph 21.9 mph N/A   Mostly Cloudy
8:45 AM 37.4 °F 27.5 °F 30.2 °F 75% 30.15 in 10.0 mi SSE 18.4 mph 25.3 mph N/A   Mostly Cloudy
9:45 AM 37.4 °F 27.8 °F 30.2 °F 75% 30.15 in 10.0 mi SSE 17.3 mph 24.2 mph N/A   Overcast
10:45 AM 42.8 °F 36.6 °F 30.2 °F 61% 30.14 in 10.0 mi SSE 11.5 mph 21.9 mph N/A   Mostly Cloudy
11:47 AM 42.8 °F 35.4 °F 30.2 °F 61% 30.10 in 10.0 mi SSE 15.0 mph 20.7 mph N/A   Mostly Cloudy
12:47 PM 46.4 °F 39.2 °F 30.2 °F 53% 30.06 in 10.0 mi South 18.4 mph 25.3 mph N/A   Mostly Cloudy
1:50 PM 48.2 °F - 30.2 °F 50% 30.03 in 10.0 mi SSE 20.7 mph 31.1 mph N/A   Mostly Cloudy
2:48 PM 46.4 °F 39.8 °F 30.2 °F 53% 30.00 in 10.0 mi SSE 16.1 mph 25.3 mph N/A   Mostly Cloudy
3:45 PM 46.4 °F 41.1 °F 32.0 °F 57% 30.00 in 10.0 mi SSE 11.5 mph 23.0 mph N/A   Overcast
4:45 PM 44.6 °F 38.8 °F 32.0 °F 61% 30.00 in 10.0 mi SSE 11.5 mph 20.7 mph N/A   Overcast
5:45 PM 42.8 °F 36.6 °F 32.0 °F 66% 30.01 in 10.0 mi SSE 11.5 mph - N/A   Overcast
6:45 PM 42.8 °F 36.6 °F 33.8 °F 70% 30.02 in 10.0 mi SSE 11.5 mph 17.3 mph N/A   Mostly Cloudy
7:45 PM 41.0 °F 34.3 °F 33.8 °F 76% 30.00 in 10.0 mi SSE 11.5 mph 17.3 mph N/A   Mostly Cloudy
8:45 PM 39.2 °F 32.0 °F 33.8 °F 81% 29.99 in 10.0 mi SSE 11.5 mph 17.3 mph N/A   Mostly Cloudy
9:15 PM 39.2 °F 30.8 °F 33.8 °F 81% 29.99 in 10.0 mi SSE 15.0 mph - N/A   Clear
9:19 PM 39.2 °F 30.2 °F 33.8 °F 81% 29.99 in 10.0 mi South 17.3 mph 23.0 mph N/A   Clear
9:37 PM 39.2 °F 31.2 °F 33.8 °F 81% 29.99 in 10.0 mi South 13.8 mph - N/A   Clear
9:55 PM 39.2 °F 31.6 °F 33.8 °F 81% 29.98 in 10.0 mi South 12.7 mph 18.4 mph N/A   Clear
10:16 PM 39.2 °F 31.2 °F 33.8 °F 81% 29.97 in 10.0 mi South 13.8 mph - N/A   Clear
10:36 PM 39.2 °F 31.6 °F 33.8 °F 81% 29.96 in 7.0 mi SSE 12.7 mph - N/A   Clear
10:58 PM 37.4 °F 29.8 °F 33.8 °F 87% 29.96 in 7.0 mi SSE 11.5 mph 17.3 mph N/A   Scattered Clouds
11:16 PM 37.4 °F 29.3 °F 33.8 °F 87% 29.96 in 7.0 mi South 12.7 mph - N/A   Scattered Clouds
11:36 PM 37.4 °F 31.4 °F 33.8 °F 87% 29.95 in 7.0 mi SSE 8.1 mph - N/A   Clear
11:56 PM 39.2 °F 33.6 °F 33.8 °F 81% 29.95 in 7.0 mi South 8.1 mph - N/A   Clear